Lid_Strength_Index
15 14 15 15 15 15 16 17 18 17 16 14 14 14 12 12 10 10 10 9 10 11 11 12 12 12 11 11 11 11 10 10 10 10 9 9 8 8 8 7 7 7 7 6
17 14 15 16 15 14 15 15 16 15 15 12 11 11 11 11 10 10 11 10 10 10 11 11 12 12 12 11 11 10 11 10 9 9 9 8 8 8 8 7 7 7 7 7
20 16 16 19 15 14 14 14 14 16 14 11 11 10 11 11 11 11 11 10 10 10 11 12 11 11 11 11 11 11 11 10 9 9 8 8 8 8 8 8 7 7 7 7
21 18 22 16 13 13 13 12 11 11 11 10 10 10 10 10 11 10 10 10 10 11 11 11 11 11 11 10 11 11 10 10 9 9 9 8 8 8 8 7 7 7 7 7
21 22 17 14 13 13 14 13 10 11 10 10 9 11 12 9 9 10 10 10 11 11 11 11 11 10 10 11 11 10 9 10 9 9 9 8 8 8 7 7 7 8 7 8
18 22 22 15 12 11 11 17 10 10 11 11 11 14 13 10 9 9 9 10 10 10 10 11 10 10 11 11 10 10 9 9 9 9 8 8 8 8 7 7 8 8 8 7
19 21 17 12 11 11 18 16 11 11 11 11 13 12 10 9 9 8 9 9 10 11 11 11 10 11 11 10 11 9 9 9 9 8 7 7 8 8 8 7 8 8 8 7
19 20 19 10 12 14 13 12 11 11 11 11 10 9 9 8 8 8 9 10 10 11 11 10 10 11 11 11 10 10 9 9 8 8 7 7 8 7 8 8 8 8 8 8
15 15 11 11 11 10 10 11 11 11 10 9 9 9 9 9 9 9 10 10 10 10 10 10 10 10 11 10 10 10 9 9 8 7 8 7 8 9 9 8 9 9 8 7
14 12 12 11 10 10 10 10 9 9 9 9 10 9 9 9 9 9 10 10 9 10 10 10 10 10 11 10 9 9 9 9 8 9 7 8 8 8 8 8 8 7 7 8
14 13 12 11 11 10 10 9 9 9 9 9 9 9 9 9 9 9 10 9 9 10 10 10 10 10 10 9 9 10 9 8 9 8 8 8 8 8 8 7 6 7 8 7
14 12 12 12 11 9 9 9 9 9 9 8 9 9 8 9 9 9 9 9 9 9 10 10 10 10 10 9 9 9 8 8 8 8 8 8 8 8 6 5 5 6 5 5
12 11 11 10 9 9 10 9 8 8 9 9 8 8 8 8 8 7 9 9 9 9 9 10 10 11 10 9 9 9 8 8 8 8 8 8 9 9 9 7 6 6 6 5
10 10 12 11 10 9 9 8 8 8 8 8 8 7 8 8 8 8 8 9 9 9 10 10 10 10 9 9 9 8 8 8 9 8 8 9 9 9 8 9 9 9 7 7
10 10 10 10 9 9 8 8 9 9 9 8 7 8 7 8 8 8 8 8 8 9 10 10 10 10 9 8 8 8 9 9 8 8 8 8 9 9 9 9 9 9 8 8
10 10 10 10 10 9 9 8 9 9 8 8 8 7 7 7 7 8 8 8 9 10 10 10 10 9 9 8 8 7 10 8 8 9 9 9 9 9 9 10 10 9 9 9
11 12 11 11 10 10 9 8 8 8 7 7 7 7 7 7 8 8 8 8 9 9 10 10 10 9 8 8 8 9 10 9 8 9 10 9 9 10 10 10 10 10 10 9
9 9 9 9 9 9 8 8 7 7 7 6 6 6 7 8 8 8 8 8 9 10 9 9 9 8 9 9 7 10 10 9 10 10 10 10 10 10 10 10 10 10 10 9
8 9 9 9 9 9 8 7 6 6 5 6 6 7 7 7 7 8 8 9 9 11 10 9 7 9 9 8 6 10 10 10 10 10 10 9 10 10 10 10 10 10 10 10
9 9 8 8 7 7 7 7 6 6 5 6 6 7 8 8 8 8 8 9 9 9 9 9 9 10 9 8 7 10 10 10 11 11 10 11 11 11 11 10 11 10 10 9
9 9 9 8 8 7 6 6 6 6 5 6 7 7 8 8 8 8 9 9 9 9 8 8 9 10 9 7 9 10 10 10 11 11 11 11 11 11 11 11 11 10 9 9
9 9 8 8 8 7 6 6 6 6 6 6 6 7 8 8 8 8 8 9 9 6 8 10 10 8 7 7 9 10 10 10 11 11 11 11 11 11 11 11 11 9 10 10
9 8 7 7 7 7 6 6 6 6 6 6 7 7 8 8 9 10 10 8 8 8 9 10 8 6 6 9 9 10 10 10 11 11 11 11 11 11 11 12 10 9 9 10
8 8 7 6 7 7 7 6 6 6 6 6 6 7 8 9 10 8 8 7 5 7 9 9 8 6 7 10 10 10 10 11 11 11 11 10 11 11 11 11 10 9 9 10
7 7 7 7 7 7 7 7 7 6 6 7 7 7 7 7 7 8 8 8 6 7 10 8 7 7 10 10 10 10 10 10 11 11 11 11 11 11 11 11 10 9 10 11
7 7 7 6 7 7 7 7 9 7 7 8 8 8 7 6 6 6 8 8 9 8 10 10 10 9 10 10 10 10 11 11 11 11 11 11 11 11 12 10 10 9 10 11
7 5 7 7 6 6 6 6 7 7 7 8 8 7 6 6 6 7 7 9 9 10 10 10 10 9 10 9 11 11 11 12 11 11 11 12 11 11 12 11 10 9 10 12